Weather in Partizansk

Russia / Primorsky Krai     43°07′11″N   133°07′23″E
temp.,
°C
wind,
m/s
gust,
m/s
humid.,
%
clouds,
%
prec.,
mm/h
press.,
hPa
HPBL,
m
20 june, sun
sun2001:00+12nne119271 0.1 100239
04:00+12nne0191100 0.1 100253
07:00+12sw1396100 0.1 1003243
10:00+12sw2392100 0.1 1003433
13:00+13wsw2287100 0.1 1003559
16:00+13wsw1187100 0.2 1004336
19:00+12ssw2288100 0.1 1004331
22:00+10sw1298100 0.1 1006121
21 june, mon
mon2101:00+10sw1297100 0.0 1006102
04:00+10wnw0197100 0.1 100642
07:00+10wnw0197100 0.0 100751
10:00+11nnw0196100 0.1 100883
13:00+13sse218499 0.1 1008492
16:00+15ssw227598 0.3 1008842
19:00+14sw228194 0.1 1009427
22:00+11sw1195100 0.1 101120
22 june, tue
tue2201:00+11wnw1198100 0.5 101117
04:00+11n119892 0.5 101119
07:00+12nne129784 0.0 101289
10:00+18ene016846 0.0 1012695
13:00+22ssw225157 0.2 10111643
16:00+20sw325920 0.7 10101119
19:00+17ssw23701 0.3 1011396
22:00+11wnw11950 0.3 101311
23 june, wed
wed2301:00+11nne11960 0.0 101311
04:00+10nne11970 0.0 101214
07:00+12nne12930 0.0 101364
10:00+20ssw11630 0.0 1012710
13:00+24ssw34460 0.0 10111675
16:00+20ssw44584 0.0 1011739
19:00+18ssw22661 0.0 1011443
22:00+12wnw11952 0.0 101310
24 june, thu
thu2401:00+12n11961 0.1 101211
04:00+11nnw00960 0.1 101210
07:00+13n11905 0.0 101152
10:00+22sw115815 0.0 1010590
13:00+25ssw2248100 0.0 1009983
16:00+23sw3352100 0.0 1009714
19:00+19ssw236879 0.0 1010284
22:00+14sw119456 0.0 101213